Ahmedabad, India

2:33 AM IST on May 24, 2017 (GMT +0530)
Ahmedabad

Weather History for VAAH - April, 2013

Change the Weather History Date:

Friday, April 26, 2013

  Actual Average Record
Temperature  
Mean Temperature 92 °F -  
Max Temperature 104 °F 101 °F 109 °F (2008)
Min Temperature 79 °F 78 °F 75 °F (2005)
Cooling Degree Days 26    
Growing Degree Days 42 (Base 50)    
Moisture  
Dew Point 54 °F    
Average Humidity 29    
Maximum Humidity 54    
Minimum Humidity 8    
Precipitation  
Precipitation 0.00 in 0.02 in - ()
Sea Level Pressure  
Sea Level Pressure 29.79 in    
Wind  
Wind Speed 6 mph ()    
Max Wind Speed 14 mph    
Max Gust Speed -    
Visibility 2.8 miles    
Events      
Averages and records for this station are not official NWS values.
T = Trace of Precipitation, MM = Missing Value Source: Averaged Metar Reports

Daily Weather History Graph

Daily Weather History Graph

Search for Another Location

Airport or City:

Trip Planner

Search our weather history database for the weather conditions in past years. The results will help you decide how hot, cold, wet, or windy it might be!

Date:

Astronomy

Apr. 26, 2013 Rise Set
Actual Time 6:10 AM IST 7:04 PM IST
Civil Twilight 5:46 AM IST 7:28 PM IST
Nautical Twilight 5:19 AM IST 7:55 PM IST
Astronomical Twilight 4:50 AM IST 8:24 PM IST
Moon 7:49 PM IST (4/26) 6:20 AM IST (4/26)
Length of Visible Light 13h 41m
Length of Day
12h 54m
Full, 100% of the Moon is Illuminated
Apr 26
Full
May 2
Last Quarter
May 10
New
May 18
First Quarter
May 25
Full

Hourly Weather History & Observations

Time (IST) Temp. Heat Index Dew Point Humidity Pressure Visibility Wind Dir Wind Speed Gust Speed Precip Events Conditions
12:10 AM 86.0 °F 84.9 °F 57.2 °F 37% 29.80 in 2.5 mi WNW 6.9 mph - N/A   Smoke
12:40 AM 86.0 °F 84.9 °F 57.2 °F 37% 29.77 in 2.5 mi WNW 5.8 mph - N/A   Smoke
1:10 AM 84.2 °F 83.5 °F 57.2 °F 40% 29.77 in 2.5 mi WNW 5.8 mph - N/A   Smoke
1:40 AM 84.2 °F 83.5 °F 57.2 °F 40% 29.77 in 2.5 mi WNW 6.9 mph - N/A   Smoke
2:10 AM 84.2 °F 83.5 °F 57.2 °F 40% 29.77 in 2.5 mi WNW 6.9 mph - N/A   Smoke
2:30 AM 87 °F - 55 °F 24% 29.78 in 2 mi NW 4.6 mph - -  
2:40 AM 82.4 °F 82.0 °F 57.2 °F 42% 29.77 in 2.5 mi WNW 6.9 mph - N/A   Smoke
3:10 AM 82.4 °F 82.0 °F 57.2 °F 42% 29.77 in 2.5 mi WNW 6.9 mph - N/A   Smoke
3:40 AM 80.6 °F 80.8 °F 57.2 °F 45% 29.77 in 2.5 mi WNW 9.2 mph - N/A   Smoke
4:10 AM 80.6 °F 80.8 °F 57.2 °F 45% 29.77 in 2.5 mi WNW 6.9 mph - N/A   Smoke
4:40 AM 78.8 °F - 57.2 °F 47% 29.77 in 2.5 mi WNW 6.9 mph - N/A   Smoke
5:10 AM 78.8 °F - 59.0 °F 51% 29.77 in 2.5 mi WNW 6.9 mph - N/A   Smoke
5:30 AM 83 °F - 57 °F 30% 29.80 in 2 mi NW 6.9 mph - -   Clear
5:40 AM 78.8 °F - 59.0 °F 51% 29.80 in 2.5 mi WNW 5.8 mph - N/A   Smoke
6:10 AM 78.8 °F - 59.0 °F 51% 29.80 in 2.5 mi WNW 6.9 mph - N/A   Smoke
6:40 AM 78.8 °F - 59.0 °F 51% 29.83 in 2.5 mi West 5.8 mph - N/A   Smoke
7:10 AM 78.8 °F - 60.8 °F 54% 29.83 in 2.5 mi WNW 4.6 mph - N/A   Smoke
7:40 AM 80.6 °F 81.1 °F 59.0 °F 48% 29.86 in 2.2 mi WNW 5.8 mph - N/A   Smoke
8:10 AM 82.4 °F 82.9 °F 60.8 °F 48% 29.89 in 2.5 mi WNW 5.8 mph - N/A   Smoke
8:30 AM 85 °F - 62 °F 37% 29.87 in 2 mi NW 5.8 mph - -  
9:10 AM 87.8 °F 87.1 °F 59.0 °F 38% 29.89 in 3.1 mi NW 8.1 mph - N/A   Smoke
10:10 AM 91.4 °F 89.4 °F 55.4 °F 29% 29.89 in 3.7 mi WNW 6.9 mph - N/A   Unknown
10:40 AM 93.2 °F - 51.8 °F 24% 29.89 in 3.7 mi WNW 8.1 mph - N/A   Unknown
11:10 AM 95.0 °F 93.0 °F 55.4 °F 26% 29.86 in 3.7 mi WNW 5.8 mph - N/A   Unknown
11:30 AM 95 °F - 54 °F 16% 29.86 in 2 mi NW 5.8 mph - -  
11:40 AM 96.8 °F 94.4 °F 53.6 °F 23% 29.86 in 3.7 mi WNW 5.8 mph - N/A   Unknown
12:10 PM 98.6 °F - 51.8 °F 21% 29.83 in 3.7 mi WNW 5.8 mph - N/A   Unknown
12:40 PM 100.4 °F - 51.8 °F 20% 29.83 in 3.7 mi West 8.1 mph - N/A   Unknown
1:10 PM 102.2 °F - 51.8 °F 18% 29.83 in 3.7 mi West 8.1 mph - N/A   Unknown
1:40 PM 102.2 °F - 48.2 °F 16% 29.80 in 3.7 mi West 12.7 mph - N/A   Unknown
2:10 PM 102.2 °F - 48.2 °F 16% 29.77 in 3.7 mi West 13.8 mph - N/A   Unknown
2:30 PM 102 °F - 46 °F 8% 29.79 in 2 mi NW 5.8 mph - -  
2:40 PM 104.0 °F - 46.4 °F 14% 29.77 in 3.7 mi WNW 11.5 mph - N/A   Unknown
3:10 PM 104.0 °F - 46.4 °F 14% 29.74 in 3.7 mi WNW 9.2 mph - N/A   Unknown
3:40 PM 105.8 °F - 46.4 °F 14% 29.74 in 3.7 mi WNW 9.2 mph - N/A   Unknown
4:10 PM 105.8 °F - 48.2 °F 14% 29.74 in 3.7 mi WNW 8.1 mph - N/A   Unknown
4:40 PM 105.8 °F - 48.2 °F 14% 29.71 in 3.7 mi West 11.5 mph - N/A   Unknown
5:10 PM 105.8 °F - 51.8 °F 17% 29.71 in 3.7 mi West 12.7 mph - N/A   Unknown
5:30 PM 102 °F - 53 °F 12% 29.73 in 2 mi NW 5.8 mph - -  
5:40 PM 102.2 °F - 50.0 °F 17% 29.71 in 3.7 mi NW 9.2 mph - N/A   Unknown
6:10 PM 102.2 °F - 50.0 °F 17% 29.71 in 3.7 mi West 10.4 mph - N/A   Unknown
7:40 PM 98.6 °F - 51.8 °F 21% 29.74 in 2.5 mi West 4.6 mph - N/A   Smoke
8:10 PM 98.6 °F 96.4 °F 53.6 °F 22% 29.77 in 2.5 mi WNW 3.5 mph - N/A   Smoke
8:30 PM 94 °F - 60 °F 23% 29.78 in 2 mi NW 3.5 mph - -  
9:10 PM 95.0 °F 92.7 °F 53.6 °F 25% 29.77 in 2.5 mi Variable 3.5 mph - N/A   Smoke
9:40 PM 95.0 °F 92.7 °F 53.6 °F 25% 29.77 in 2.5 mi West 4.6 mph - N/A   Smoke
10:10 PM 93.2 °F 90.8 °F 53.6 °F 26% 29.80 in 2.5 mi West 4.6 mph - N/A   Smoke
10:40 PM 93.2 °F 90.8 °F 53.6 °F 26% 29.80 in 2.5 mi WNW 4.6 mph - N/A   Smoke
11:10 PM 91.4 °F - 51.8 °F 26% 29.80 in 2.5 mi West 3.5 mph - N/A   Smoke
11:30 PM 85 °F - 56 °F 27% 29.81 in 2 mi Calm Calm - -